Previsão horária em Central Denmark Region

Hoje, 25 Julho, Domingo

Tempo Temperatura Precipitação Vento Pressão Humidade
00:00 +17°C° 0 mm 3 m/s 753 mmHg 85%
01:00 +15°C° 0 mm 4 m/s 753 mmHg 86%
02:00 +17°C° 0 mm 4 m/s 753 mmHg 88%
03:00 +17°C° 0 mm 4 m/s 752 mmHg 90%
04:00 +16°C° 0 mm 5 m/s 752 mmHg 92%
05:00 +17°C° 0 mm 5 m/s 752 mmHg 88%
06:00 +19°C° 0 mm 5 m/s 752 mmHg 84%
07:00 +20°C° 0 mm 6 m/s 752 mmHg 79%
08:00 +21°C° 0 mm 6 m/s 752 mmHg 75%
09:00 +22°C° 0 mm 7 m/s 752 mmHg 71%
10:00 +23°C° 0 mm 7 m/s 752 mmHg 67%
11:00 +23°C° 0.2 mm 7 m/s 752 mmHg 67%
12:00 +23°C° 0.2 mm 7 m/s 752 mmHg 67%
13:00 +23°C° 0.2 mm 7 m/s 752 mmHg 66%
14:00 +23°C° 0 mm 7 m/s 752 mmHg 64%
15:00 +23°C° 0 mm 7 m/s 752 mmHg 62%
16:00 +24°C° 0 mm 7 m/s 752 mmHg 60%
17:00 +23°C° 0 mm 6 m/s 752 mmHg 61%
18:00 +23°C° 0 mm 5 m/s 752 mmHg 63%
19:00 +22°C° 0 mm 5 m/s 752 mmHg 65%
20:00 +21°C° 0 mm 4 m/s 752 mmHg 70%
21:00 +20°C° 0 mm 4 m/s 752 mmHg 75%
22:00 +19°C° 0 mm 3 m/s 752 mmHg 80%
23:00 +19°C° 0 mm 3 m/s 752 mmHg 82%

Amanhã, 26 Julho, Segunda-feira

Tempo Temperatura Precipitação Vento Pressão Humidade
00:00 +19°C° 0 mm 3 m/s 752 mmHg 84%
01:00 +19°C° 0 mm 3 m/s 751 mmHg 86%
02:00 +18°C° 0.4 mm 3 m/s 751 mmHg 89%
03:00 +18°C° 0.4 mm 3 m/s 751 mmHg 92%
04:00 +17°C° 0.4 mm 2 m/s 751 mmHg 94%
05:00 +18°C° 1 mm 3 m/s 751 mmHg 93%
06:00 +19°C° 1 mm 3 m/s 751 mmHg 92%
07:00 +20°C° 1 mm 3 m/s 751 mmHg 91%
08:00 +21°C° 1.2 mm 3 m/s 751 mmHg 84%
09:00 +24°C° 1.2 mm 3 m/s 751 mmHg 76%
10:00 +26°C° 1.2 mm 4 m/s 750 mmHg 69%
11:00 +26°C° 0.9 mm 4 m/s 750 mmHg 65%
12:00 +27°C° 0.9 mm 3 m/s 750 mmHg 62%
13:00 +27°C° 0.9 mm 3 m/s 750 mmHg 59%
14:00 +27°C° 1.3 mm 3 m/s 750 mmHg 63%
15:00 +26°C° 1.3 mm 3 m/s 750 mmHg 67%
16:00 +25°C° 1.3 mm 3 m/s 750 mmHg 71%
17:00 +25°C° 0.6 mm 2 m/s 750 mmHg 73%
18:00 +24°C° 0.6 mm 2 m/s 750 mmHg 76%
19:00 +24°C° 0.6 mm 1 m/s 750 mmHg 79%
20:00 +21°C° 0.2 mm 2 m/s 750 mmHg 83%
21:00 +20°C° 0.2 mm 2 m/s 750 mmHg 87%
22:00 +19°C° 0.2 mm 2 m/s 750 mmHg 91%
23:00 +18°C° 0 mm 2 m/s 750 mmHg 91%

Depois de amanhã, 27 Julho, Terça-feira

Tempo Temperatura Precipitação Vento Pressão Humidade
00:00 +18°C° 0 mm 2 m/s 750 mmHg 91%
01:00 +18°C° 0 mm 2 m/s 750 mmHg 91%
02:00 +18°C° 0 mm 2 m/s 750 mmHg 92%
03:00 +17°C° 0 mm 2 m/s 750 mmHg 93%
04:00 +17°C° 0 mm 3 m/s 750 mmHg 93%
05:00 +18°C° 0 mm 3 m/s 750 mmHg 91%
06:00 +18°C° 0 mm 3 m/s 750 mmHg 89%
07:00 +19°C° 0 mm 4 m/s 750 mmHg 87%
08:00 +20°C° 0 mm 4 m/s 750 mmHg 79%
09:00 +22°C° 0 mm 4 m/s 750 mmHg 72%
10:00 +23°C° 0 mm 4 m/s 750 mmHg 64%
11:00 +23°C° 0.1 mm 4 m/s 750 mmHg 63%
12:00 +23°C° 0.1 mm 4 m/s 750 mmHg 62%
13:00 +23°C° 0.1 mm 5 m/s 750 mmHg 61%
14:00 +23°C° 0.1 mm 5 m/s 750 mmHg 62%
15:00 +23°C° 0.1 mm 5 m/s 750 mmHg 63%
16:00 +23°C° 0.1 mm 5 m/s 750 mmHg 64%
17:00 +22°C° 0.1 mm 4 m/s 750 mmHg 67%
18:00 +21°C° 0.1 mm 4 m/s 750 mmHg 70%
19:00 +20°C° 0.1 mm 3 m/s 750 mmHg 73%
20:00 +19°C° 0 mm 3 m/s 750 mmHg 79%
21:00 +18°C° 0 mm 2 m/s 750 mmHg 85%
22:00 +16°C° 0 mm 2 m/s 751 mmHg 90%
23:00 +16°C° 0 mm 2 m/s 750 mmHg 92%

28 Julho, Quarta-feira

Tempo Temperatura Precipitação Vento Pressão Humidade
00:00 +16°C° 0 mm 2 m/s 750 mmHg 93%
01:00 +15°C° 0 mm 2 m/s 750 mmHg 95%
02:00 +15°C° 0 mm 2 m/s 750 mmHg 95%
03:00 +15°C° 0 mm 2 m/s 749 mmHg 95%
04:00 +15°C° 0 mm 2 m/s 749 mmHg 95%
05:00 +16°C° 0 mm 3 m/s 749 mmHg 90%
06:00 +17°C° 0 mm 3 m/s 749 mmHg 84%
07:00 +18°C° 0 mm 3 m/s 749 mmHg 78%
08:00 +20°C° 0 mm 4 m/s 749 mmHg 72%
09:00 +21°C° 0 mm 4 m/s 749 mmHg 66%
10:00 +22°C° 0 mm 5 m/s 749 mmHg 60%
11:00 +21°C° 0.6 mm 5 m/s 749 mmHg 67%
12:00 +20°C° 0.6 mm 5 m/s 749 mmHg 74%
13:00 +19°C° 0.6 mm 5 m/s 749 mmHg 82%
14:00 +19°C° 0.5 mm 5 m/s 749 mmHg 81%
15:00 +19°C° 0.5 mm 5 m/s 749 mmHg 80%
16:00 +19°C° 0.5 mm 5 m/s 749 mmHg 80%
17:00 +19°C° 0.1 mm 5 m/s 749 mmHg 78%
18:00 +19°C° 0.1 mm 5 m/s 749 mmHg 77%
19:00 +17°C° 0.1 mm 5 m/s 749 mmHg 75%
20:00 +16°C° 0 mm 5 m/s 750 mmHg 80%
21:00 +15°C° 0 mm 4 m/s 750 mmHg 85%
22:00 +14°C° 0 mm 4 m/s 750 mmHg 90%
23:00 +13°C° 0 mm 4 m/s 750 mmHg 92%

29 Julho, Quinta-feira

Tempo Temperatura Precipitação Vento Pressão Humidade
00:00 +13°C° 0 mm 4 m/s 750 mmHg 93%
01:00 +12°C° 0 mm 4 m/s 750 mmHg 94%
02:00 +12°C° 0 mm 4 m/s 750 mmHg 94%
03:00 +12°C° 0 mm 4 m/s 749 mmHg 94%
04:00 +12°C° 0 mm 4 m/s 749 mmHg 94%
05:00 +13°C° 0 mm 4 m/s 749 mmHg 90%
06:00 +15°C° 0 mm 5 m/s 749 mmHg 86%
07:00 +16°C° 0 mm 6 m/s 749 mmHg 82%
08:00 +17°C° 0.1 mm 6 m/s 749 mmHg 75%
09:00 +18°C° 0.1 mm 7 m/s 749 mmHg 69%
10:00 +20°C° 0.1 mm 8 m/s 749 mmHg 63%
11:00 +21°C° 0.1 mm 8 m/s 749 mmHg 60%
12:00 +21°C° 0.1 mm 8 m/s 749 mmHg 57%
13:00 +21°C° 0.1 mm 8 m/s 749 mmHg 55%
14:00 +21°C° 0 mm 8 m/s 749 mmHg 54%
15:00 +21°C° 0 mm 8 m/s 749 mmHg 53%
16:00 +20°C° 0 mm 8 m/s 749 mmHg 52%
17:00 +18°C° 0 mm 7 m/s 749 mmHg 58%
18:00 +19°C° 0 mm 6 m/s 749 mmHg 64%
19:00 +17°C° 0 mm 5 m/s 749 mmHg 69%
20:00 +15°C° 0 mm 5 m/s 749 mmHg 75%
21:00 +14°C° 0 mm 4 m/s 748 mmHg 81%
22:00 +13°C° 0 mm 3 m/s 748 mmHg 86%
23:00 +12°C° 0 mm 3 m/s 748 mmHg 89%

30 Julho, Sexta-feira

Tempo Temperatura Precipitação Vento Pressão Humidade
00:00 +12°C° 0 mm 3 m/s 748 mmHg 91%
01:00 +11°C° 0 mm 3 m/s 748 mmHg 94%
02:00 +11°C° 0 mm 3 m/s 748 mmHg 94%
03:00 +11°C° 0 mm 3 m/s 747 mmHg 95%
04:00 +11°C° 0 mm 3 m/s 747 mmHg 95%
05:00 +13°C° 0 mm 4 m/s 747 mmHg 90%
06:00 +14°C° 0 mm 4 m/s 746 mmHg 84%
07:00 +15°C° 0 mm 4 m/s 746 mmHg 79%
08:00 +15°C° 0.2 mm 5 m/s 746 mmHg 79%
09:00 +16°C° 0.2 mm 5 m/s 746 mmHg 79%
10:00 +16°C° 0.2 mm 6 m/s 746 mmHg 78%
11:00 +17°C° 0.2 mm 6 m/s 745 mmHg 69%
12:00 +20°C° 0.2 mm 7 m/s 745 mmHg 60%
13:00 +21°C° 0.2 mm 8 m/s 745 mmHg 51%
14:00 +20°C° 0.4 mm 8 m/s 745 mmHg 58%
15:00 +18°C° 0.4 mm 8 m/s 744 mmHg 65%
16:00 +18°C° 0.4 mm 8 m/s 744 mmHg 73%
17:00 +17°C° 0.4 mm 8 m/s 744 mmHg 77%
18:00 +16°C° 0.4 mm 7 m/s 744 mmHg 81%
19:00 +15°C° 0.4 mm 7 m/s 744 mmHg 85%
20:00 +14°C° 0.3 mm 7 m/s 744 mmHg 87%
21:00 +14°C° 0.3 mm 6 m/s 744 mmHg 89%
22:00 +13°C° 0.3 mm 5 m/s 744 mmHg 90%
23:00 +12°C° 0 mm 5 m/s 744 mmHg 91%
Mostrar mais

Necessitamos do seu Consentimento

A Meteoprog e os seus Fornecedores de Serviços podem armazenar e aceder a dados pessoais como cookies, identificadores do dispositivo ou outras tecnologias semelhantes existentes no seu dispositivo e processar estes dados para personalizar conteúdos e anúncios, assim como funcionalidades nas redes sociais e análise de tráfego.

  • Armazenar e/ou aceder a informações no seu dispositivo

    Os cookies, identificadores do dispositivo ou outras informações podem ser armazenados ou acedidos no seu dispositivo, para os fins acima indicados.

  • Anúncios e conteúdos personalizados, medição de anúncios e conteúdos, dados sobre o público-alvo e desenvolvimento de produtos

    Os anúncios e os conteúdos podem ser personalizados com base num perfil. Podem ser adicionados dados adicionais para uma maior personalização dos anúncios e dos conteúdos. A eficácia dos anúncios e dos conteúdos pode ser medida. Podem ser obtidas informações sobre o público que visualizou os anúncios e os conteúdos. Estes dados podem ser usados para desenvolver ou melhorar sistemas, softwares ou a experiência do utilizador.

Ao clicar em "Eu concordo”, permitirá o uso de cookies, identificadores do dispositivo e web beacons mencionados ou outras tecnologias semelhantes. As configurações do navegador do seu dispositivo podem ser alteradas.

Para certos fins, podem ser invocados interesses legítimos ao invés de consentimento. Pode ler mais informação sobre este assunto na nossa Política de Privacidade e Cookies.